Stations météo

Publicité
Figari, France (7780): Température de l'air & dewpoint: 13.10.2018 21:00:00 - 19.10.2018 21:00:00 (CEST)Figari, France (7780): Température de l'air 5cm: 13.10.2018 21:00:00 - 19.10.2018 21:00:00 (CEST)Figari, France (7780): Vitesse du vent & gusts: 13.10.2018 21:00:00 - 19.10.2018 21:00:00 (CEST)Figari, France (7780): Direction du vent: 13.10.2018 21:00:00 - 19.10.2018 21:00:00 (CEST)Figari, France (7780): reduced air pressure: 13.10.2018 21:00:00 - 19.10.2018 21:00:00 (CEST)Figari, France (7780): visibility: 13.10.2018 21:00:00 - 19.10.2018 21:00:00 (CEST)Figari, France (7780): Quantités de précipitations: 13.10.2018 21:00:00 - 19.10.2018 21:00:00 (CEST)
Date & Time tt [°C] td [°C] tt 5cm [°C] ff [km/h] ff [knt] fx [km/h] fx [knt] dd ppp [hPa] vv [km] rr [mm]
19.10.2018 21:00:00 18,6 15,8 16,8 6 3 19 10 E 1018,3 18 0,0
19.10.2018 20:00:00 19,4 16,4 17,6 12 6 21 11 ENE 1017,6 21 0,0
19.10.2018 19:00:00 19,9 15,7 17,6 10 5 19 10 ENE 1017,0 28 0,0
19.10.2018 18:00:00 21,9 16,6 21,4 12 6 23 12 ENE 1016,2 33 0,0
19.10.2018 17:00:00 23,8 16,3 24,6 11 6 31 17 ENE 1016,0 33 0,0
19.10.2018 16:00:00 24,9 16,1 28,6 16 9 30 16 ENE 1015,6 31 0,0
19.10.2018 15:00:00 25,5 15,8 29,5 14 8 31 17 ESE 1015,8 25 0,0
19.10.2018 14:00:00 25,5 15,8 - 16 9 34 18 E 1015,7 49 0,0
19.10.2018 13:00:00 25,4 15,1 - 15 8 39 21 ESE 1016,6 50 0,2
19.10.2018 12:00:00 25,1 16,3 - 18 10 32 18 E 1016,5 45 0,0
19.10.2018 11:00:00 23,8 16,6 - 19 11 37 20 ENE 1016,3 42 0,0
19.10.2018 10:00:00 21,9 15,5 - 17 9 29 16 ENE 1016,0 39 0,0
19.10.2018 09:00:00 19,9 15,1 - 10 6 33 18 NE 1015,5 43 0,0
19.10.2018 08:00:00 18,9 14,0 - 15 8 25 14 E 1014,8 48 0,0
19.10.2018 07:00:00 18,7 14,0 - 15 8 32 17 ENE 1014,1 45 0,0
19.10.2018 06:00:00 18,4 13,9 - 19 10 33 18 NE 1013,9 46 0,0
19.10.2018 05:00:00 19,2 14,0 - 16 9 38 20 ENE 1013,7 49 0,0
19.10.2018 04:00:00 18,9 14,4 - 19 11 31 17 ENE 1013,5 42 0,0
19.10.2018 03:00:00 18,2 15,8 - 13 7 29 16 NE 1013,3 28 0,0
19.10.2018 02:00:00 18,8 15,1 - 15 8 29 16 ENE 1013,4 39 0,0
19.10.2018 01:00:00 17,9 14,4 - 13 7 23 12 NE 1013,3 42 0,0
19.10.2018 00:00:00 17,9 14,2 - 10 5 31 17 NNE 1013,6 37 0,0
18.10.2018 23:00:00 19,4 15,3 - 17 9 31 17 ENE 1013,2 39 0,0
18.10.2018 22:00:00 19,3 15,6 - 22 12 36 19 ENE 1012,9 33 0,0
18.10.2018 21:00:00 19,6 15,3 - 13 7 33 18 ENE 1012,7 38 0,0
18.10.2018 20:00:00 19,6 15,7 - 17 9 32 17 ENE 1011,8 37 0,0
18.10.2018 19:00:00 20,1 16,1 - 18 10 42 23 ENE 1011,1 33 0,0
18.10.2018 18:00:00 21,2 16,6 - 26 14 52 28 ENE 1010,4 35 0,0
18.10.2018 17:00:00 22,2 16,7 - 23 12 62 33 ENE 1010,7 28 0,0
18.10.2018 16:00:00 23,3 15,6 - 25 13 60 33 ENE 1011,1 28 0,0
18.10.2018 15:00:00 23,5 15,5 - 36 20 67 36 ENE 1010,7 31 0,0
18.10.2018 14:00:00 23,5 16,8 - 34 19 66 36 ENE 1011,2 34 0,0
18.10.2018 13:00:00 23,9 16,9 - 32 17 58 32 ENE 1011,7 40 0,0
18.10.2018 12:00:00 23,4 16,2 - 32 17 61 33 NE 1012,1 47 0,0
18.10.2018 11:00:00 22,9 16,0 - 27 15 51 28 ENE 1012,1 52 0,0
18.10.2018 10:00:00 21,2 15,9 - 21 11 42 23 ENE 1011,9 41 0,0
18.10.2018 09:00:00 20,0 15,0 - 18 10 36 19 ENE 1011,9 56 0,0
18.10.2018 08:00:00 18,6 14,9 - 16 9 33 18 ENE 1011,5 60 0,0
18.10.2018 07:00:00 18,4 15,1 - 19 10 36 19 ENE 1011,4 60 0,0
18.10.2018 06:00:00 18,0 16,2 - 16 8 37 20 NE 1012,0 56 0,0
18.10.2018 05:00:00 17,8 16,1 - 21 12 33 18 NE 1011,7 50 0,0
18.10.2018 04:00:00 17,2 15,5 - 20 11 33 18 NE 1011,9 59 0,0
18.10.2018 03:00:00 17,3 15,6 - 19 11 38 21 ENE 1012,2 57 0,0
18.10.2018 02:00:00 17,4 15,7 - 16 9 32 17 ENE 1012,6 59 0,0
18.10.2018 01:00:00 17,8 16,1 - 15 8 29 16 ENE 1013,3 36 1,0
18.10.2018 00:00:00 18,1 16,4 - 17 9 32 17 ENE 1013,9 15 0,4
17.10.2018 23:00:00 18,2 16,5 - 15 8 37 20 ENE 1014,0 56 0,2
17.10.2018 22:00:00 18,4 17,1 - 22 12 40 22 ENE 1014,1 4,6 3,0
17.10.2018 21:00:00 19,3 16,9 - 15 8 32 18 ENE 1013,7 55 0,0
17.10.2018 20:00:00 19,3 17,4 - 16 9 33 18 ENE 1013,7 39 0,0
17.10.2018 19:00:00 20,0 17,6 - 14 8 41 22 ENE 1013,5 49 0,0
17.10.2018 18:00:00 20,9 17,9 - 20 11 41 22 ENE 1012,9 55 0,0
17.10.2018 17:00:00 21,2 17,2 - 16 9 37 20 E 1013,1 54 0,0
17.10.2018 16:00:00 22,0 17,1 - 22 12 44 24 ENE 1013,5 45 0,0
17.10.2018 15:00:00 23,6 16,4 - 22 12 44 24 ENE 1013,3 34 0,0
17.10.2018 14:00:00 22,4 17,3 - 23 13 39 21 NE 1013,6 46 0,0
17.10.2018 13:00:00 22,3 17,9 - 22 12 39 21 NE 1013,7 57 0,0
17.10.2018 12:00:00 20,8 17,6 - 21 11 41 22 NE 1014,4 44 0,0
17.10.2018 11:00:00 19,5 17,3 - 17 9 31 17 ENE 1014,3 37 0,0
17.10.2018 10:00:00 18,6 16,6 - 15 8 27 14 ENE 1014,1 58 0,0
17.10.2018 09:00:00 18,0 16,5 - 12 6 27 15 ENE 1014,1 42 0,0
17.10.2018 08:00:00 17,2 16,1 - 9 5 18 10 NE 1013,7 27 0,0
17.10.2018 07:00:00 16,8 15,7 - 8 5 25 14 NE 1013,4 24 0,0
17.10.2018 06:00:00 16,9 15,8 - 13 7 29 15 NE 1013,7 26 2,3
17.10.2018 05:00:00 17,0 15,7 - 16 9 28 15 NE 1013,7 6 3,2
17.10.2018 04:00:00 17,4 15,6 - 16 8 40 22 ENE 1014,6 17 0,8
17.10.2018 03:00:00 17,0 14,3 - 11 6 22 12 NE 1014,8 50 0,0
17.10.2018 02:00:00 17,3 14,2 - 8 4 23 12 NE 1015,3 54 0,0
17.10.2018 01:00:00 17,6 14,9 - 13 7 24 13 ENE 1015,5 51 0,0
17.10.2018 00:00:00 17,3 15,1 - 15 8 29 16 NE 1015,9 48 0,0
16.10.2018 23:00:00 17,6 15,6 - 9 5 22 12 ENE 1016,3 52 0,0
16.10.2018 22:00:00 18,0 16,0 - 11 6 22 12 E 1016,7 46 0,0
16.10.2018 21:00:00 18,6 16,7 - 14 7 24 13 ENE 1016,5 31 0,0
16.10.2018 20:00:00 18,6 16,7 - 14 7 19 11 ENE 1016,1 33 0,0
16.10.2018 19:00:00 19,3 16,9 - 9 5 24 13 ENE 1016,0 41 0,0
16.10.2018 18:00:00 21,0 17,4 - 13 7 30 16 ENE 1015,5 48 0,0
16.10.2018 17:00:00 22,2 16,7 - 16 9 31 17 NE 1015,3 55 0,0
16.10.2018 16:00:00 24,9 17,6 - 5 3 22 12 NNW 1015,2 58 0,0
16.10.2018 15:00:00 25,0 16,7 - 10 5 26 14 SSW 1014,7 55 0,0
16.10.2018 14:00:00 24,5 16,7 - 16 8 28 15 SSW 1015,0 52 0,0
16.10.2018 13:00:00 24,1 16,9 - 5 3 16 9 SSE 1015,4 30 0,0
16.10.2018 12:00:00 23,0 18,1 - 10 6 22 12 E 1015,5 37 0,0
16.10.2018 11:00:00 21,8 17,8 - 13 7 23 12 ENE 1015,7 46 0,0
16.10.2018 10:00:00 18,8 17,1 - 10 5 23 12 E 1015,6 22 0,0
16.10.2018 09:00:00 18,1 16,6 - 14 8 31 17 ENE 1015,2 22 0,0
16.10.2018 08:00:00 17,4 16,1 - 16 8 27 15 ENE 1014,5 30 0,0
16.10.2018 07:00:00 17,0 15,9 - 15 8 25 14 ENE 1014,4 23 0,0
16.10.2018 06:00:00 16,9 15,6 - 9 5 26 14 NE 1014,9 12 0,8
16.10.2018 05:00:00 16,9 15,4 - 16 9 30 16 ENE 1014,6 12 0,4
16.10.2018 04:00:00 16,9 15,4 - 16 9 27 14 ENE 1014,9 14 0,6
16.10.2018 03:00:00 17,0 15,5 - 15 8 32 17 ENE 1015,4 9 0,6
16.10.2018 02:00:00 17,8 16,1 - 14 8 26 14 ENE 1015,7 10 0,4
16.10.2018 01:00:00 18,3 16,5 - 14 7 27 14 ENE 1015,8 15 0,0
16.10.2018 00:00:00 18,4 17,1 - 18 10 29 16 NE 1016,1 12 0,2
15.10.2018 23:00:00 18,4 16,6 - 14 8 30 16 ENE 1016,3 15 0,8
15.10.2018 22:00:00 19,1 16,3 - 12 6 30 16 E 1016,2 19 0,0
15.10.2018 21:00:00 19,9 15,3 - 19 10 33 18 ENE 1015,5 28 0,0
15.10.2018 20:00:00 19,9 15,9 - 19 11 34 18 ENE 1015,3 23 0,0
15.10.2018 19:00:00 20,2 16,0 - 18 10 36 20 ENE 1015,1 23 0,0
15.10.2018 18:00:00 20,9 16,1 - 21 12 39 21 ENE 1015,0 21 0,0
15.10.2018 17:00:00 21,6 15,9 - 21 11 44 24 ENE 1014,8 24 0,0
15.10.2018 16:00:00 22,6 15,9 - 26 14 45 24 ENE 1014,4 19 0,0
15.10.2018 15:00:00 23,1 15,7 - 24 13 48 26 ENE 1014,1 22 0,0
15.10.2018 14:00:00 23,6 15,4 - 26 14 49 26 NE 1014,3 25 0,0
15.10.2018 13:00:00 23,6 15,4 - 27 15 45 24 NE 1015,0 19 0,0
15.10.2018 12:00:00 22,4 15,3 - 26 14 49 27 NE 1015,0 18 0,0
15.10.2018 11:00:00 21,9 15,3 - 23 12 51 27 ENE 1015,1 23 0,0
15.10.2018 10:00:00 20,4 15,4 - 23 13 41 22 ENE 1015,0 20 0,0
15.10.2018 09:00:00 19,0 14,7 - 22 12 42 23 ENE 1014,6 26 0,0
15.10.2018 08:00:00 18,3 13,8 - 19 10 35 19 ENE 1014,0 29 0,0
15.10.2018 07:00:00 18,0 13,5 - 15 8 31 17 ENE 1014,3 30 0,0
15.10.2018 06:00:00 18,6 13,5 - 16 8 29 16 ENE 1014,3 29 0,0
15.10.2018 05:00:00 18,8 13,9 - 18 10 33 18 ENE 1014,4 28 0,0
15.10.2018 04:00:00 18,5 13,8 - 16 9 34 18 ENE 1014,5 27 0,0
15.10.2018 03:00:00 18,8 13,6 - 18 10 31 17 ENE 1015,0 30 0,0
15.10.2018 02:00:00 18,5 13,6 - 14 8 29 16 ENE 1015,4 32 0,0
15.10.2018 01:00:00 17,5 12,8 - 15 8 34 18 ENE 1015,7 29 0,0
15.10.2018 00:00:00 18,3 12,7 - 15 8 35 19 ENE 1015,9 32 0,0
14.10.2018 23:00:00 18,4 13,3 - 23 12 37 20 ENE 1015,8 30 0,0
14.10.2018 22:00:00 18,5 13,4 - 14 8 32 17 E 1015,9 28 0,0
14.10.2018 21:00:00 18,7 13,8 - 15 8 29 15 ENE 1015,9 27 0,0
14.10.2018 20:00:00 19,3 13,7 - 14 7 32 18 E 1015,9 29 0,0
14.10.2018 19:00:00 19,5 14,1 - 15 8 34 18 ENE 1015,4 27 0,0
14.10.2018 18:00:00 21,7 13,6 - 18 10 40 22 ENE 1015,3 41 0,0
14.10.2018 17:00:00 23,0 13,7 - 20 11 38 20 ENE 1015,5 34 0,0
14.10.2018 16:00:00 23,4 13,6 - 23 12 41 22 ENE 1015,8 37 0,0
14.10.2018 15:00:00 24,7 13,3 - 21 12 41 22 NE 1016,0 36 0,0
14.10.2018 14:00:00 24,2 11,5 - 25 14 42 23 NE 1016,5 33 0,0
14.10.2018 13:00:00 23,7 12,0 - 24 13 46 25 NE 1017,3 34 0,0
14.10.2018 12:00:00 23,3 14,3 - 23 12 45 24 NE 1017,7 36 0,0
14.10.2018 11:00:00 21,9 14,5 - 20 11 41 22 ENE 1017,9 37 0,0
14.10.2018 10:00:00 20,1 14,2 - 25 13 39 21 ENE 1018,0 34 0,0
14.10.2018 09:00:00 18,1 13,4 - 19 10 30 16 ENE 1018,0 27 0,0
14.10.2018 08:00:00 14,7 12,6 - 11 6 19 11 ENE 1017,9 23 0,0
14.10.2018 07:00:00 14,4 12,3 - 13 7 21 12 ENE 1018,2 20 0,0
14.10.2018 06:00:00 13,8 11,5 - 9 5 16 9 ENE 1018,4 21 0,0
14.10.2018 05:00:00 14,1 11,8 - 8 5 12 6 ENE 1018,5 22 0,0
14.10.2018 04:00:00 15,5 12,6 - 9 5 19 10 ENE 1018,8 21 0,0
14.10.2018 03:00:00 14,6 12,8 - 9 5 19 10 NE 1019,3 16 0,0
14.10.2018 02:00:00 15,5 13,3 - 12 6 19 10 ENE 1019,6 14 0,0
14.10.2018 01:00:00 15,4 13,9 - 7 4 14 8 NE 1020,0 13 0,0
14.10.2018 00:00:00 15,2 14,1 - 9 5 16 9 ENE 1020,4 12 0,0
13.10.2018 23:00:00 15,5 14,2 - 10 5 19 10 NE 1020,5 10 0,0
13.10.2018 22:00:00 16,8 15,1 - 13 7 24 13 ENE 1020,3 10 0,0
13.10.2018 21:00:00 17,7 15,7 - 15 8 21 12 NE 1020,4 13 0,0

tt = Température de l'air
td = dewpoint
tt 5cm = Température de l'air 5cm
ff = Vitesse du vent
fx = gusts
dd = Direction du vent
ppp = reduced air pressure
vv = visibility
rr = Quantités de précipitations

stations d'obs. à proximité